Flag for China Weather past 2 weeks in Dalian, Liaoning, China

Now
77 °F

Passing clouds.


Feels Like: 79 °F
Forecast: 79 / 87 °F
Wind: 6 mph from Northwest

Location: Dalian Airport

Current Time: Jul 23, 2014 at 5:51:25 AM

Latest Report: Jul 23, 2014 at 1:00 AM


Visibility: N/A

Pressure: 29.68 "Hg

Humidity: 69%

Dew point: 66 °F

Location of DalianLocation

Historic Weather in Dalian — Graph

°F

Dalian temperature yesterday

Maximum temperature yesterday: 86 °F (at 11:30 AM)
Minimum temperature yesterday: 73 °F (at 12:00 AM)
Average temperature yesterday: 78 °F

Past Weeks' High & Low Weather Summary

 TemperatureHumidityPressure
High93 °F (Jul 10, 1:30 PM)94% (Jul 17, 5:30 AM)29.89 "Hg (Jul 17, 5:30 AM)
Low70 °F (Jul 15, 9:00 PM)22% (Jul 10, 5:00 PM)29.47 "Hg (Jul 10, 11:00 AM)
Average79 °F66%29.67 "Hg
* Reported Midnight between Jul 7 and Jul 8 — Jul 23 12:30 AM, Dalian, Weather by CustomWeather, © 2014

Note: Actual official high and low records may vary slightly from our data, if they occured in-between our weather recording intervals... More about our weather records

Advertising

Dalian weather history for previous 24 hours

 ConditionsComfort  
Time TempWeatherWind HumidityBarometerVisibility
12:30 AM
Jul 23
77 °FPassing clouds.3 mph65%29.68 "HgN/A
12:00 AM77 °FPassing clouds.3 mph61%29.68 "HgN/A
11:30 PM
Jul 22
77 °FPassing clouds.3 mph65%29.68 "HgN/A
11:00 PM77 °FPassing clouds.3 mph65%29.68 "HgN/A
10:30 PM77 °FPassing clouds.3 mph65%29.68 "HgN/A
10:00 PM79 °FPassing clouds.3 mph65%29.68 "HgN/A
9:30 PM79 °FPassing clouds.3 mph65%29.68 "HgN/A
9:00 PM79 °FPassing clouds.3 mph61%29.68 "HgN/A
8:30 PM79 °FPassing clouds.6 mph61%29.68 "HgN/A
8:00 PM79 °FPassing clouds.3 mph61%29.68 "HgN/A
7:30 PM79 °FPassing clouds.6 mph61%29.68 "HgN/A
7:00 PM79 °FPassing clouds.6 mph65%29.68 "HgN/A
6:30 PM81 °FSunny.6 mph66%29.65 "Hg10 mi
6:00 PM81 °FSunny.6 mph66%29.65 "Hg10 mi
5:30 PM81 °FSunny.8 mph66%29.65 "Hg10 mi
5:00 PM82 °FPassing clouds.8 mph58%29.65 "HgN/A
4:30 PM81 °FSunny.8 mph66%29.65 "Hg10 mi
4:00 PM81 °FPartly sunny.8 mph66%29.65 "HgN/A
3:30 PM81 °FPartly sunny.13 mph66%29.65 "HgN/A
3:00 PM81 °FPartly sunny.10 mph66%29.65 "HgN/A
2:30 PM81 °FPartly sunny.15 mph66%29.65 "HgN/A
2:00 PM82 °FScattered clouds.10 mph66%29.65 "HgN/A
1:30 PM86 °FScattered clouds.13 mph59%29.65 "HgN/A
1:00 PM86 °FScattered clouds.13 mph59%29.65 "HgN/A
12:30 PM84 °FScattered clouds.13 mph62%29.68 "HgN/A
12:00 PM84 °FScattered clouds.8 mph66%29.68 "HgN/A
11:30 AM86 °FScattered clouds.3 mph62%29.68 "HgN/A
11:00 AM82 °FScattered clouds.3 mph70%29.68 "HgN/A
10:30 AM81 °FScattered clouds.6 mph74%29.68 "HgN/A
10:00 AM81 °FScattered clouds.6 mph74%29.68 "HgN/A
9:30 AM81 °FScattered clouds.8 mph70%29.68 "HgN/A
9:00 AM79 °FScattered clouds.6 mph74%29.65 "HgN/A
8:30 AM79 °FScattered clouds.8 mph74%29.65 "Hg4 mi
8:00 AM77 °FScattered clouds.8 mph83%29.68 "Hg4 mi
7:30 AM77 °FScattered clouds.6 mph83%29.65 "Hg4 mi
7:00 AM75 °FScattered clouds.6 mph89%29.65 "Hg4 mi
6:30 AM75 °FScattered clouds.8 mph89%29.65 "Hg4 mi
6:00 AM75 °FScattered clouds.6 mph89%29.65 "Hg4 mi
5:30 AM75 °FScattered clouds.6 mph89%29.65 "HgN/A
5:00 AM73 °FSunny.6 mph94%29.65 "Hg10 mi
Weather by CustomWeather, © 2014

See weather overviewHow to use our weather pages